Regional Weather Roundup
Issued by NWS Albany, NY

Home | Current Version | Previous Version | Text Only | Print | Product List | Glossary On
Versions: 1 2 3 4 5 6 7 8 9 10 11 12 13 14 15 16 17 18 19 20 21 22 23 24 25 26 27 28 29 30 31 32 33 34 35 36 37 38 39 40 41 42 43 44 45 46 47 48 49 50
000
ASUS41 KALY 040710
RWRALY

NEW YORK STATE HOURLY WEATHER ROUNDUP
NATIONAL WEATHER SERVICE ALBANY NY
200 AM EST SUN DEC 04 2016

NOTE: "FAIR" INDICATES FEW OR NO CLOUDS BELOW 12,000 FEET WITH NO
SIGNIFICANT WEATHER AND/OR NO OBSTRUCTIONS TO VISIBILITY.

NYZ032-033-038>043-046>054-057>066-NYZ062>081-082-084-040800-
EAST


CITY           SKY/WX    TMP DP  RH WIND       PRES   REMARKS
ALBANY         MOCLDY    33  18  53 NW7       30.19R WCI  27
GLENS FALLS    CLOUDY    35  19  52 NW8       30.16R WCI  29
POUGHKEEPSIE   CLOUDY    36  25  64 CALM      30.18R
NEWBURGH       CLOUDY    37  25  60 NW14      30.18R WCI  29
MONTGOMERY     CLOUDY    39  25  57 VRB3      30.17R
WHITE PLAINS   CLOUDY    37  26  64 N5        30.17R WCI  33
ISLIP          PTCLDY    37  27  67 NW6       30.17R WCI  32
NEW YORK CITY  MOCLDY    44  27  51 NW14      30.19R
CENTRAL PARK   CLOUDY    42  24  49 MISG      30.21R
$$

NYZ005>009-017-018-044>046-055-056-040800-
CENTRAL


CITY           SKY/WX    TMP DP  RH WIND       PRES   REMARKS
FULTON         CLOUDY    36  25  64 NW6       30.22R WCI  31
SYRACUSE       CLOUDY    35  24  64 W8        30.22R WCI  29
ROME           CLOUDY    31  26  82 NW6       30.23R WCI  25
ELMIRA         CLOUDY    38  26  62 NW7       30.21R WCI  33
BINGHAMTON     CLOUDY    31  25  78 W5        30.16S WCI  26
MONTICELLO     CLOUDY    34  21  60 NW15G23   30.16R WCI  24
$$

NYZ026>034-041>043-087-040800-
NORTH


CITY           SKY/WX    TMP DP  RH WIND       PRES   REMARKS
WATERTOWN      MOCLDY    28  19  69 N5        30.25R WCI  23
FORT DRUM      NOT AVBL
OGDENSBURG     MOCLDY    31  23  73 NW7       30.22S WCI  24
MASSENA        CLOUDY    32  20  61 W7        30.22R WCI  26
SARANAC LAKE   CLOUDY    24  18  77 VRB6      30.10R WCI  17
PLATTSBURGH    CLOUDY    32  21  64 NW9       30.17R WCI  24
$$

NYZ001>004-010>016-019>021-085-040800-
WEST


CITY           SKY/WX    TMP DP  RH WIND       PRES   REMARKS
NIAGARA FALLS  CLOUDY    37  30  75 W6        30.24S WCI  32
BUFFALO        CLOUDY    37  30  75 NW5       30.24S WCI  33
DUNKIRK        CLOUDY    39  28  64 NW8       30.25F WCI  33
JAMESTOWN      CLOUDY    34  28  80 NW5       30.21R WCI  30
WELLSVILLE     CLOUDY    33  27  78 NW10      30.18F WCI  25
ROCHESTER      CLOUDY    37  28  70 NW6       30.24S WCI  32
PENN YAN       MIX PCPN  35  29  78 NW7       30.22S WCI  29
$$

             KEY
       WCI = WIND CHILL INDEX
       VSB = VISIBILITY
       HX  = HEAT INDEX
$$



USA.gov is the U.S. government's official web portal to all federal, state and local government web resources and services.